Погода в Яншихово-Челлах

Россия / Чувашская Республика     55°44′48″N   47°17′37″E
темп.,
°C
ветер,
м/с
пор.,
м/с
влажн.,
%
обл.,
%
осадки,
мм/ч
давл.,
гПа
погр.,
м
14 мая, пт
пт1400:00+16ю41487100 2.3 1020322
03:00+14юв3888100 3.1 1020135
06:00+16юв378576 0.1 1020212
09:00+20ююв5763100 0.1 1019526
12:00+23ю5754100 0.0 1019886
15:00+24ююз56561 0.0 10181266
18:00+23юз36715 0.0 1018186
21:00+18ююз2281100 0.0 101811
15 мая, сб
сб1500:00+17ююв228586 0.0 101811
03:00+17юв3386100 0.0 101744
06:00+19ююв3880100 0.0 1017205
09:00+23ю51054100 0.0 1017593
12:00+27ююз61244100 0.0 10161217
15:00+27ююз6124279 0.0 10161385
18:00+23ююз410602 0.0 1015247
21:00+18ю33705 0.0 101638
16 мая, вс
вс1600:00+16ю336960 0.0 101631
03:00+15ююв336895 0.0 101637
06:00+17ю397090 0.0 1016214
09:00+22ююз585449 0.0 1016517
12:00+25юз6947100 0.0 1016986
15:00+26юз474825 0.0 10161095
18:00+24ююз36635 0.0 1014139
21:00+18ююз337395 0.0 101630
17 мая, пн
пн1700:00+16юз3381100 0.0 101628
03:00+15юз1188100 0.0 101711
06:00+18ююз117970 0.0 101865
09:00+23ю125828 0.0 1018476
12:00+26ю244741 0.0 10181099
15:00+29ююз25375 0.0 10161695
18:00+26ссз226022 0.0 101622
21:00+20юв33695 0.0 101724
18 мая, вт
вт1800:00+18ю226721 0.0 101711
03:00+16юв22685 0.0 101712
06:00+19юв246687 0.0 1016105
09:00+24ю465160 0.0 1016385
12:00+28ююв563696 0.0 10161225
15:00+28юв373778 0.0 10152184
18:00+23юв4963100 0.0 1015176
21:00+20юв356379 0.0 101564